Grosse Ile, MI

11:32 AM EDT on March 23, 2017 (GMT -0400)
Grosse Ile Municipal

Weather History for KONZ - January, 2014

Change the Weather History Date:

Thursday, January 2, 2014

  Actual Average (KDTW) Record (KDTW)
Temperature  
Mean Temperature 12 °F -  
Max Temperature 17 °F 32 °F 62 °F (1876)
Min Temperature 6 °F 19 °F -12 °F (1879)
Degree Days  
Heating Degree Days 54    
Moisture  
Dew Point 7 °F    
Average Humidity 78    
Maximum Humidity 86    
Minimum Humidity 61    
Precipitation  
Precipitation 0.00 in - - ()
Sea Level Pressure  
Sea Level Pressure 30.10 in    
Wind  
Wind Speed 18 mph (NNE)    
Max Wind Speed 24 mph    
Max Gust Speed 37 mph    
Visibility 4 miles    
Events Snow    
Averages and records for this station are not official NWS values.
T = Trace of Precipitation, MM = Missing Value Source: NWS Daily Summary

Daily Weather History Graph

Daily Weather History Graph

Search for Another Location

Airport or City:

Trip Planner

Search our weather history database for the weather conditions in past years. The results will help you decide how hot, cold, wet, or windy it might be!

Date:

Astronomy

Jan. 02, 2014 Rise Set
Actual Time 8:01 AM EST 5:12 PM EST
Civil Twilight 7:29 AM EST 5:44 PM EST
Nautical Twilight 6:54 AM EST 6:19 PM EST
Astronomical Twilight 6:20 AM EST 6:53 PM EST
Moon 8:39 AM EST (1/2) 7:10 PM EST (1/2)
Length of Visible Light 10h 14m
Length of Day
9h 11m
New Moon, 2% of the Moon is Illuminated
Jan 2
New Moon
Jan 7
First Quarter
Jan 15
Full
Jan 24
Last Quarter
Jan 30
New

Hourly Weather History & Observations

Time (EST) Temp. Windchill Dew Point Humidity Pressure Visibility Wind Dir Wind Speed Gust Speed Precip Events Conditions
12:14 AM 17.6 °F 2.2 °F 12.2 °F 79% 30.17 in 1.8 mi NNE 17.3 mph 21.9 mph N/A Snow Light Snow
12:34 AM 17.6 °F 2.2 °F 14.0 °F 86% 30.16 in 3.0 mi NE 17.3 mph 24.2 mph N/A Snow Light Snow
12:54 AM 17.6 °F 2.2 °F 12.2 °F 79% 30.16 in 4.0 mi NE 17.3 mph 27.6 mph N/A Snow Light Snow
1:14 AM 15.8 °F 0.9 °F 12.2 °F 86% 30.16 in 4.0 mi NE 15.0 mph 24.2 mph N/A Snow Light Snow
1:34 AM 15.8 °F -0.2 °F 12.2 °F 86% 30.15 in 4.0 mi NE 17.3 mph 24.2 mph N/A Snow Light Snow
1:54 AM 15.8 °F 1.4 °F 10.4 °F 79% 30.15 in 5.0 mi NE 13.8 mph - N/A Snow Light Snow
2:14 AM 15.8 °F -0.2 °F 10.4 °F 79% 30.15 in 4.0 mi NE 17.3 mph 24.2 mph N/A Snow Light Snow
2:34 AM 14.0 °F -3.4 °F 10.4 °F 86% 30.15 in 7.0 mi NE 19.6 mph - N/A Snow Light Snow
2:54 AM 14.0 °F -3.0 °F 8.6 °F 79% 30.15 in 4.0 mi NE 18.4 mph 26.5 mph N/A Snow Light Snow
3:14 AM 12.2 °F -4.8 °F 8.6 °F 85% 30.15 in 5.0 mi NE 17.3 mph - N/A Snow Light Snow
3:35 AM 12.2 °F -4.3 °F 8.6 °F 85% 30.14 in 5.0 mi NNE 16.1 mph 25.3 mph N/A Snow Light Snow
3:54 AM 12.2 °F -4.3 °F 8.6 °F 85% 30.14 in 7.0 mi NE 16.1 mph 26.5 mph N/A Snow Light Snow
4:14 AM 12.2 °F -4.3 °F 8.6 °F 85% 30.13 in 5.0 mi NE 16.1 mph 23.0 mph N/A Snow Light Snow
4:35 AM 12.2 °F -4.3 °F 8.6 °F 85% 30.12 in 4.0 mi NE 16.1 mph 21.9 mph N/A Snow Light Snow
4:54 AM 12.2 °F -5.3 °F 6.8 °F 79% 30.11 in 4.0 mi NNE 18.4 mph - N/A Snow Light Snow
5:14 AM 10.4 °F -7.7 °F 6.8 °F 85% 30.11 in 5.0 mi NE 18.4 mph 23.0 mph N/A Snow Light Snow
5:34 AM 12.2 °F -6.3 °F 6.8 °F 79% 30.10 in 4.0 mi NNE 20.7 mph 27.6 mph N/A Snow Light Snow
5:54 AM 12.2 °F -5.8 °F 6.8 °F 79% 30.10 in 5.0 mi NNE 19.6 mph 24.2 mph N/A Snow Light Snow
6:14 AM 12.2 °F -7.1 °F 6.8 °F 79% 30.09 in 5.0 mi NE 23.0 mph 26.5 mph N/A Snow Light Snow
6:34 AM 12.2 °F -4.3 °F 6.8 °F 79% 30.09 in 4.0 mi NE 16.1 mph - N/A Snow Light Snow
6:54 AM 12.2 °F -4.3 °F 6.8 °F 79% 30.08 in 4.0 mi NE 16.1 mph 26.5 mph N/A Snow Light Snow
7:14 AM 12.2 °F -6.3 °F 6.8 °F 79% 30.07 in 3.0 mi NE 20.7 mph 27.6 mph N/A Snow Light Snow
7:34 AM 12.2 °F -5.3 °F 8.6 °F 85% 30.06 in 3.0 mi NE 18.4 mph 26.5 mph N/A Snow Light Snow
7:54 AM 12.2 °F -5.3 °F 8.6 °F 85% 30.06 in 3.0 mi NE 18.4 mph 24.2 mph N/A Snow Light Snow
8:14 AM 12.2 °F -6.3 °F 8.6 °F 85% 30.07 in 3.0 mi NE 20.7 mph 26.5 mph N/A Snow Light Snow
8:34 AM 12.2 °F -4.8 °F 8.6 °F 85% 30.07 in 2.5 mi NE 17.3 mph 23.0 mph N/A Snow Light Snow
8:54 AM 12.2 °F -3.7 °F 8.6 °F 85% 30.06 in 1.8 mi NE 15.0 mph 20.7 mph N/A Snow Light Snow
9:14 AM 12.2 °F -5.8 °F 8.6 °F 85% 30.07 in 1.2 mi NE 19.6 mph 25.3 mph N/A Snow Light Snow
9:34 AM 12.2 °F -5.8 °F 8.6 °F 85% 30.07 in 1.0 mi NNE 19.6 mph 28.8 mph N/A Snow Light Snow
9:54 AM 12.2 °F -7.1 °F 8.6 °F 85% 30.06 in 1.2 mi NE 23.0 mph 27.6 mph N/A Snow Light Snow
10:14 AM 12.2 °F -6.3 °F 8.6 °F 85% 30.08 in 1.2 mi NNE 20.7 mph 27.6 mph N/A Snow Light Snow
10:34 AM 12.2 °F -4.8 °F 8.6 °F 85% 30.08 in 1.2 mi NNE 17.3 mph 26.5 mph N/A Snow Light Snow
10:54 AM 12.2 °F -3.7 °F 8.6 °F 85% 30.07 in 1.5 mi NNE 15.0 mph 27.6 mph N/A Snow Light Snow
11:14 AM 12.2 °F -4.3 °F 8.6 °F 85% 30.07 in 0.8 mi NNE 16.1 mph 20.7 mph N/A Snow Light Snow
11:34 AM 14.0 °F -2.0 °F 8.6 °F 79% 30.06 in 1.0 mi NNE 16.1 mph 25.3 mph N/A Snow Light Snow
11:54 AM 14.0 °F -2.5 °F 8.6 °F 79% 30.06 in 1.2 mi NNE 17.3 mph 29.9 mph N/A Snow Light Snow
12:14 PM 15.8 °F -1.5 °F 8.6 °F 73% 30.05 in 1.2 mi NNE 20.7 mph 27.6 mph N/A Snow Light Snow
12:34 PM 15.8 °F -1.9 °F 8.6 °F 73% 30.04 in 2.5 mi NNE 21.9 mph 31.1 mph N/A Snow Light Snow
12:54 PM 15.8 °F -0.6 °F 10.4 °F 79% 30.03 in 1.8 mi NNE 18.4 mph 24.2 mph N/A Snow Light Snow
1:14 PM 15.8 °F 2.1 °F 10.4 °F 79% 30.03 in 1.0 mi NNE 12.7 mph 27.6 mph N/A Snow Light Snow
1:34 PM 15.8 °F -2.7 °F 8.6 °F 73% 30.02 in 0.8 mi North 24.2 mph 32.2 mph N/A Snow Light Snow
1:54 PM 15.8 °F 0.3 °F 8.6 °F 73% 30.01 in 1.5 mi North 16.1 mph 25.3 mph N/A Snow Light Snow
2:14 PM 15.8 °F -2.3 °F 6.8 °F 68% 30.02 in 2.0 mi North 23.0 mph 31.1 mph N/A   Haze
2:35 PM 15.8 °F 0.9 °F 8.6 °F 73% 30.02 in 2.5 mi North 15.0 mph 20.7 mph N/A Snow Light Snow
2:54 PM 15.8 °F -1.1 °F 8.6 °F 73% 30.02 in 4.0 mi North 19.6 mph 28.8 mph N/A Snow Light Snow
3:14 PM 15.8 °F -2.3 °F 6.8 °F 68% 30.02 in 2.0 mi NNE 23.0 mph 36.8 mph N/A   Haze
3:34 PM 15.8 °F -1.9 °F 6.8 °F 68% 30.03 in 2.5 mi NNE 21.9 mph 31.1 mph N/A   Haze
3:54 PM 15.8 °F -1.9 °F 6.8 °F 68% 30.03 in 4.0 mi North 21.9 mph 29.9 mph N/A   Haze
4:15 PM 15.8 °F 1.4 °F 8.6 °F 73% 30.04 in 1.8 mi North 13.8 mph 23.0 mph N/A Snow Light Snow
4:34 PM 15.8 °F -1.5 °F 8.6 °F 73% 30.05 in 3.0 mi North 20.7 mph 26.5 mph N/A Snow Light Snow
4:54 PM 15.8 °F -0.2 °F 6.8 °F 68% 30.05 in 7.0 mi North 17.3 mph 21.9 mph N/A   Overcast
5:14 PM 14.0 °F -0.8 °F 6.8 °F 73% 30.06 in 7.0 mi North 13.8 mph - N/A   Overcast
5:34 PM 14.0 °F -2.0 °F 8.6 °F 79% 30.07 in 5.0 mi North 16.1 mph 24.2 mph N/A Snow Light Snow
5:54 PM 14.0 °F -3.0 °F 8.6 °F 79% 30.09 in 2.5 mi North 18.4 mph 25.3 mph N/A Snow Light Snow
6:14 PM 14.0 °F -3.4 °F 8.6 °F 79% 30.09 in 4.0 mi North 19.6 mph 27.6 mph N/A Snow Light Snow
6:34 PM 14.0 °F -2.0 °F 8.6 °F 79% 30.11 in 3.0 mi North 16.1 mph 20.7 mph N/A Snow Light Snow
6:54 PM 14.0 °F -0.8 °F 8.6 °F 79% 30.11 in 5.0 mi North 13.8 mph 18.4 mph N/A Snow Light Snow
7:14 PM 14.0 °F -3.9 °F 6.8 °F 73% 30.12 in 4.0 mi North 20.7 mph 26.5 mph N/A Snow Light Snow
7:34 PM 12.2 °F -5.8 °F 6.8 °F 79% 30.13 in 5.0 mi North 19.6 mph 24.2 mph N/A Snow Light Snow
7:54 PM 12.2 °F -6.7 °F 6.8 °F 79% 30.15 in 5.0 mi North 21.9 mph 27.6 mph N/A Snow Light Snow
8:14 PM 12.2 °F -3.7 °F 6.8 °F 79% 30.15 in 5.0 mi NNW 15.0 mph 20.7 mph N/A Snow Light Snow
8:34 PM 12.2 °F -4.8 °F 6.8 °F 79% 30.16 in 7.0 mi North 17.3 mph 23.0 mph N/A   Overcast
8:54 PM 12.2 °F -2.5 °F 5.0 °F 73% 30.16 in 7.0 mi North 12.7 mph 23.0 mph N/A   Overcast
9:14 PM 10.4 °F -7.2 °F 5.0 °F 79% 30.17 in 7.0 mi NNW 17.3 mph 25.3 mph N/A   Overcast
9:34 PM 10.4 °F -8.6 °F 3.2 °F 73% 30.18 in 7.0 mi NNW 20.7 mph 26.5 mph N/A   Overcast
9:54 PM 8.6 °F -10.5 °F 1.4 °F 73% 30.19 in 10.0 mi NNW 19.6 mph 28.8 mph N/A   Overcast
10:14 PM 8.6 °F -9.5 °F 1.4 °F 73% 30.19 in 10.0 mi NNW 17.3 mph 25.3 mph N/A   Overcast
10:34 PM 8.6 °F -10.0 °F -0.4 °F 67% 30.19 in 10.0 mi NNW 18.4 mph 25.3 mph N/A   Scattered Clouds
10:54 PM 6.8 °F -10.7 °F -0.4 °F 72% 30.19 in 10.0 mi NNW 15.0 mph 25.3 mph N/A   Clear
11:14 PM 6.8 °F -10.7 °F -2.2 °F 67% 30.20 in 10.0 mi NNW 15.0 mph 25.3 mph N/A   Clear
11:34 PM 6.8 °F -11.8 °F -2.2 °F 67% 30.20 in 10.0 mi NNW 17.3 mph 23.0 mph N/A   Clear
11:54 PM 6.8 °F -12.4 °F -4.0 °F 61% 30.21 in 10.0 mi NNW 18.4 mph 24.2 mph N/A   Clear